EN

Hourly Weather Luczyna

Today, 26 November, Thursday

Time Temperature Precipitation Wind Pressure Humidity
00:00 -2°C° 0 mm 2 mps 749 mmHg 81%
01:00 -2°C° 0 mm 2 mps 749 mmHg 81%
02:00 -2°C° 0 mm 2 mps 749 mmHg 81%
03:00 -2°C° 0 mm 2 mps 749 mmHg 80%
04:00 -2°C° 0 mm 2 mps 749 mmHg 79%
05:00 -2°C° 0 mm 2 mps 749 mmHg 79%
06:00 -2°C° 0 mm 2 mps 749 mmHg 78%
07:00 -2°C° 0 mm 2 mps 749 mmHg 77%
08:00 -1°C° 0 mm 2 mps 749 mmHg 72%
09:00 +2°C° 0 mm 2 mps 749 mmHg 67%
10:00 +3°C° 0 mm 2 mps 749 mmHg 62%
11:00 +4°C° 0 mm 2 mps 749 mmHg 60%
12:00 +5°C° 0 mm 2 mps 749 mmHg 58%
13:00 +6°C° 0 mm 2 mps 749 mmHg 56%
14:00 +5°C° 0 mm 2 mps 748 mmHg 61%
15:00 +4°C° 0 mm 2 mps 748 mmHg 66%
16:00 +3°C° 0 mm 2 mps 748 mmHg 71%
17:00 +3°C° 0 mm 2 mps 748 mmHg 71%
18:00 +3°C° 0 mm 2 mps 748 mmHg 70%
19:00 +4°C° 0 mm 2 mps 748 mmHg 70%
20:00 +4°C° 0 mm 2 mps 748 mmHg 72%
21:00 +4°C° 0 mm 2 mps 748 mmHg 74%
22:00 +4°C° 0 mm 2 mps 748 mmHg 76%
23:00 +4°C° 0 mm 2 mps 748 mmHg 78%

Tomorrow, 27 November, Friday

Time Temperature Precipitation Wind Pressure Humidity
00:00 +4°C° 0 mm 2 mps 748 mmHg 79%
01:00 +4°C° 0 mm 2 mps 748 mmHg 81%
02:00 +4°C° 0.1 mm 2 mps 748 mmHg 83%
03:00 +4°C° 0.1 mm 2 mps 748 mmHg 84%
04:00 +4°C° 0.1 mm 2 mps 748 mmHg 86%
05:00 +4°C° 0.1 mm 2 mps 748 mmHg 89%
06:00 +4°C° 0.1 mm 2 mps 748 mmHg 91%
07:00 +4°C° 0.1 mm 2 mps 749 mmHg 94%
08:00 +4°C° 0 mm 2 mps 749 mmHg 92%
09:00 +5°C° 0 mm 2 mps 749 mmHg 90%
10:00 +5°C° 0 mm 2 mps 749 mmHg 88%
11:00 +6°C° 0 mm 2 mps 749 mmHg 86%
12:00 +6°C° 0 mm 2 mps 749 mmHg 84%
13:00 +6°C° 0 mm 2 mps 749 mmHg 81%
14:00 +6°C° 0 mm 2 mps 749 mmHg 84%
15:00 +6°C° 0 mm 1 mps 749 mmHg 87%
16:00 +5°C° 0 mm 1 mps 748 mmHg 90%
17:00 +5°C° 0 mm 1 mps 749 mmHg 91%
18:00 +4°C° 0 mm 1 mps 749 mmHg 92%
19:00 +4°C° 0 mm 1 mps 749 mmHg 93%
20:00 +4°C° 0 mm 1 mps 749 mmHg 94%
21:00 +2°C° 0 mm 2 mps 749 mmHg 94%
22:00 +2°C° 0 mm 2 mps 749 mmHg 95%
23:00 +2°C° 0 mm 2 mps 749 mmHg 94%

Day after tomorrow, 28 November, Saturday

Time Temperature Precipitation Wind Pressure Humidity
00:00 +2°C° 0 mm 2 mps 749 mmHg 93%
01:00 +2°C° 0 mm 2 mps 749 mmHg 93%
02:00 +2°C° 0 mm 2 mps 749 mmHg 90%
03:00 +3°C° 0 mm 2 mps 749 mmHg 88%
04:00 +2°C° 0 mm 3 mps 749 mmHg 85%
05:00 +2°C° 0 mm 3 mps 749 mmHg 85%
06:00 +2°C° 0 mm 3 mps 749 mmHg 86%
07:00 +2°C° 0 mm 3 mps 749 mmHg 86%
08:00 +2°C° 0 mm 3 mps 749 mmHg 84%
09:00 +2°C° 0 mm 3 mps 749 mmHg 82%
10:00 +1°C° 0 mm 4 mps 750 mmHg 80%
11:00 +1°C° 0 mm 4 mps 750 mmHg 78%
12:00 +1°C° 0 mm 4 mps 750 mmHg 75%
13:00 +3°C° 0 mm 4 mps 750 mmHg 73%
14:00 +2°C° 0 mm 3 mps 750 mmHg 73%
15:00 +1°C° 0 mm 3 mps 750 mmHg 74%
16:00 +1°C° 0 mm 3 mps 750 mmHg 74%
17:00 0°C° 0 mm 3 mps 751 mmHg 75%
18:00 0°C° 0 mm 3 mps 751 mmHg 77%
19:00 -1°C° 0 mm 2 mps 751 mmHg 78%
20:00 -1°C° 0 mm 2 mps 751 mmHg 80%
21:00 -1°C° 0 mm 2 mps 751 mmHg 81%
22:00 0°C° 0 mm 1 mps 751 mmHg 83%
23:00 -1°C° 0 mm 2 mps 751 mmHg 84%

29 November, Sunday

Time Temperature Precipitation Wind Pressure Humidity
00:00 -1°C° 0 mm 2 mps 751 mmHg 84%
01:00 -1°C° 0 mm 2 mps 751 mmHg 85%
02:00 -1°C° 0 mm 2 mps 751 mmHg 89%
03:00 -1°C° 0 mm 2 mps 751 mmHg 92%
04:00 -1°C° 0 mm 2 mps 751 mmHg 95%
05:00 -1°C° 0.2 mm 2 mps 751 mmHg 96%
06:00 -1°C° 0.2 mm 2 mps 750 mmHg 96%
07:00 0°C° 0.2 mm 3 mps 750 mmHg 97%
08:00 0°C° 0.2 mm 3 mps 750 mmHg 94%
09:00 0°C° 0.2 mm 3 mps 750 mmHg 91%
10:00 0°C° 0.2 mm 3 mps 750 mmHg 88%
11:00 +1°C° 0 mm 3 mps 750 mmHg 87%
12:00 +1°C° 0 mm 3 mps 750 mmHg 86%
13:00 +1°C° 0 mm 3 mps 750 mmHg 85%
14:00 +1°C° 0.2 mm 3 mps 750 mmHg 88%
15:00 +1°C° 0.2 mm 3 mps 749 mmHg 91%
16:00 +1°C° 0.2 mm 3 mps 749 mmHg 94%
17:00 0°C° 0.2 mm 3 mps 750 mmHg 93%
18:00 0°C° 0.2 mm 3 mps 750 mmHg 93%
19:00 0°C° 0.2 mm 3 mps 750 mmHg 92%
20:00 -1°C° 0 mm 3 mps 750 mmHg 92%
21:00 -1°C° 0 mm 2 mps 750 mmHg 91%
22:00 -2°C° 0 mm 2 mps 750 mmHg 91%
23:00 -2°C° 0 mm 2 mps 751 mmHg 92%

30 November, Monday

Time Temperature Precipitation Wind Pressure Humidity
00:00 -2°C° 0 mm 2 mps 751 mmHg 93%
01:00 -2°C° 0 mm 2 mps 751 mmHg 95%
02:00 -2°C° 0 mm 2 mps 751 mmHg 95%
03:00 -3°C° 0 mm 2 mps 751 mmHg 94%
04:00 -1°C° 0 mm 1 mps 751 mmHg 94%
05:00 0°C° 0 mm 1 mps 752 mmHg 93%
06:00 0°C° 0 mm 1 mps 752 mmHg 92%
07:00 0°C° 0 mm 1 mps 752 mmHg 91%
08:00 +1°C° 0 mm 1 mps 753 mmHg 86%
09:00 -1°C° 0 mm 2 mps 753 mmHg 82%
10:00 +1°C° 0 mm 2 mps 753 mmHg 78%
11:00 +1°C° 0 mm 2 mps 753 mmHg 77%
12:00 +2°C° 0 mm 2 mps 754 mmHg 75%
13:00 +2°C° 0 mm 2 mps 754 mmHg 74%
14:00 +2°C° 0 mm 2 mps 754 mmHg 77%
15:00 +1°C° 0 mm 2 mps 754 mmHg 80%
16:00 +2°C° 0 mm 1 mps 754 mmHg 84%
17:00 +2°C° 0 mm 1 mps 754 mmHg 84%
18:00 +2°C° 0 mm 1 mps 754 mmHg 84%
19:00 +2°C° 0 mm 1 mps 754 mmHg 85%
20:00 +2°C° 0 mm 1 mps 754 mmHg 85%
21:00 +1°C° 0 mm 2 mps 755 mmHg 84%
22:00 +1°C° 0 mm 2 mps 755 mmHg 84%
23:00 +1°C° 0 mm 2 mps 754 mmHg 84%

1 December, Tuesday

Time Temperature Precipitation Wind Pressure Humidity
00:00 +1°C° 0 mm 2 mps 754 mmHg 84%
01:00 +1°C° 0 mm 2 mps 754 mmHg 83%
02:00 -1°C° 0 mm 2 mps 754 mmHg 84%
03:00 -2°C° 0 mm 3 mps 753 mmHg 84%
04:00 -2°C° 0 mm 3 mps 753 mmHg 85%
05:00 -2°C° 0 mm 3 mps 753 mmHg 84%
06:00 -2°C° 0 mm 2 mps 753 mmHg 83%
07:00 -2°C° 0 mm 2 mps 753 mmHg 82%
08:00 -2°C° 0 mm 2 mps 753 mmHg 79%
09:00 -1°C° 0 mm 2 mps 752 mmHg 76%
10:00 -1°C° 0 mm 2 mps 752 mmHg 73%
11:00 +1°C° 0 mm 2 mps 752 mmHg 72%
12:00 +1°C° 0 mm 2 mps 751 mmHg 70%
13:00 +2°C° 0 mm 2 mps 751 mmHg 69%
14:00 +1°C° 0 mm 2 mps 751 mmHg 72%
15:00 +1°C° 0 mm 2 mps 750 mmHg 75%
16:00 +1°C° 0 mm 2 mps 750 mmHg 77%
17:00 -1°C° 0 mm 2 mps 750 mmHg 77%
18:00 -1°C° 0 mm 2 mps 750 mmHg 77%
19:00 -1°C° 0 mm 2 mps 750 mmHg 77%
20:00 -1°C° 0.3 mm 2 mps 749 mmHg 83%
21:00 -1°C° 0.3 mm 2 mps 749 mmHg 89%
22:00 -1°C° 0.3 mm 3 mps 749 mmHg 95%
23:00 -1°C° 0.3 mm 3 mps 749 mmHg 95%
Show more